Location: Newark
(25.0000°N, 73.5000°E)
Time: 04:54:34
(UTC+00:00)

Altair - Pass Details

Date: 08 March 2021
Orbit: 1501 x 1683 km, 47.2° (Epoch: 12 April)

Event Time Altitude Azimuth Distance (km) Brightness Sun altitude
Rises 10:42:48 0° 220° (SW) 4,652 10.9 31.8°
Reaches altitude 10° 10:45:50 10° 219° (SW) 3,658 10.6 31.2°
Maximum altitude 10:55:00 78° 134° (SE) 1,527 8.0 29.3°
Drops below altitude 10° 11:04:11 10° 50° (NE) 3,668 9.1 27.3°
Sets 11:07:14 0° 49° (NE) 4,664 9.5 26.7°
